Date String (YYYY-MM-DD hh:mm:ss) UTC,Instrument flags,Ambient pressure (hPa),Sample flow (lpm),Bypass flow (lpm),Sample temperature (°C),Ambient temperature (°C),ASC tube jacket temperature (°C),LED temperature (°C),Box temperature (°C),Sample RH (%),Span deviation,Mass concentration (μg/m³),Mass concentration (μg/m³),Mass concentration (μg/m³)
DateTimeUTC,F1_M11,P_M11,Q1_M11,Q2_M11,T1_M11,T2_M11,T3_M11,T4_M11,T5_M11,U1_M11,ZSPAN_M11,X0_M11,X2_M11,X1_M11
2022-09-07 04:00:00,,0831.7,5.02,0.00,29.4,27.3,00.0,38.1,31.2,12.7,0002.7,0031.95,0026.05,0025.04
2022-09-07 04:01:00,,0831.7,5.00,0.00,29.4,27.6,00.0,38.1,31.2,12.7,0002.3,0031.61,0025.95,0024.99
2022-09-07 04:02:00,,0831.7,4.98,0.00,29.4,27.8,00.0,38.1,31.3,12.7,0002.3,0031.56,0025.92,0024.95
2022-09-07 04:03:00,,0831.7,5.00,0.00,29.4,28.1,00.0,38.1,31.3,12.7,0002.6,0031.62,0025.88,0024.89
2022-09-07 04:04:00,,0831.8,4.99,0.00,29.5,28.2,00.0,38.1,31.4,12.7,0002.5,0032.09,0025.87,0024.87
2022-09-07 04:05:00,,0831.7,5.02,0.00,29.5,28.4,00.0,38.2,31.4,12.7,0002.2,0031.58,0025.83,0024.83
2022-09-07 04:06:00,,0831.7,4.98,0.00,29.5,28.5,00.0,38.2,31.5,12.6,0001.9,0031.94,0025.82,0024.77
2022-09-07 04:07:00,,0831.7,5.01,0.00,29.6,28.6,00.0,38.2,31.5,12.6,0001.9,0032.57,0025.81,0024.75
2022-09-07 04:08:00,,0831.7,4.99,0.00,29.6,28.7,00.0,38.2,31.6,12.6,0001.5,0033.00,0025.75,0024.70
2022-09-07 04:09:00,,0831.7,5.01,0.00,29.7,28.8,00.0,38.3,31.6,12.6,0001.4,0033.70,0025.74,0024.67
2022-09-07 04:10:00,,0831.7,4.98,0.00,29.7,28.2,00.0,38.3,31.6,12.6,0001.2,0033.82,0025.72,0024.64
2022-09-07 04:11:00,,0831.7,5.00,0.00,29.6,27.1,00.0,38.3,31.4,12.6,0001.6,0034.13,0025.66,0024.58
2022-09-07 04:12:00,,0831.7,5.01,0.00,29.6,27.0,00.0,38.3,31.4,12.7,0001.5,0034.45,0025.68,0024.56
2022-09-07 04:13:00,,0831.7,4.99,0.00,29.6,27.2,00.0,38.2,31.4,12.6,0001.2,0034.75,0025.69,0024.56
2022-09-07 04:14:00,,0831.7,5.01,0.00,29.6,27.6,00.0,38.2,31.4,12.6,0001.1,0035.23,0025.71,0024.55
2022-09-07 04:15:00,,0831.7,4.99,0.00,29.6,27.9,00.0,38.2,31.4,12.7,0001.4,0035.02,0025.67,0024.52
2022-09-07 04:16:00,,0831.7,5.01,0.00,29.6,28.1,00.0,38.2,31.4,12.7,0001.7,0035.40,0025.65,0024.50
2022-09-07 04:17:00,,0831.7,5.00,0.00,29.6,28.3,00.0,38.3,31.5,12.7,0001.7,0034.77,0025.60,0024.48
2022-09-07 04:18:00,,0831.7,5.01,0.00,29.6,28.4,00.0,38.3,31.5,12.7,0001.9,0034.25,0025.54,0024.38
2022-09-07 04:19:00,,0831.7,4.99,0.00,29.7,28.6,00.0,38.3,31.6,12.7,0002.5,0034.36,0025.52,0024.32
2022-09-07 04:20:00,,0831.7,5.01,0.00,29.7,28.7,00.0,38.3,31.6,12.6,0002.7,0033.96,0025.45,0024.22
2022-09-07 04:21:00,,0831.7,4.99,0.00,29.7,28.8,00.0,38.4,31.7,12.6,0002.8,0033.84,0025.37,0024.14
2022-09-07 04:22:00,,0831.7,5.01,0.00,29.8,28.5,00.0,38.4,31.7,12.6,0002.5,0033.71,0025.29,0024.05
2022-09-07 04:23:00,,0831.7,4.99,0.00,29.8,27.1,00.0,38.4,31.5,12.6,0002.6,0034.06,0025.15,0023.95
2022-09-07 04:24:00,,0831.7,5.00,0.00,29.7,26.3,00.0,38.3,31.4,12.7,0002.8,0034.38,0025.09,0023.89
2022-09-07 04:25:00,,0831.7,5.00,0.00,29.6,26.5,00.0,38.3,31.3,12.8,0002.8,0034.22,0025.01,0023.82
2022-09-07 04:26:00,,0831.7,5.00,0.00,29.5,26.8,00.0,38.3,31.2,12.8,0002.8,0034.41,0024.91,0023.75
2022-09-07 04:27:00,,0831.7,5.00,0.00,29.5,27.2,00.0,38.2,31.2,12.8,0003.2,0033.85,0024.82,0023.67
2022-09-07 04:28:00,,0831.7,5.00,0.00,29.5,27.5,00.0,38.2,31.3,12.8,0003.2,0034.81,0024.73,0023.59
2022-09-07 04:29:00,,0831.7,5.00,0.00,29.5,27.7,00.0,38.2,31.3,12.8,0002.7,0034.73,0024.65,0023.55
2022-09-07 04:30:00,,0831.7,5.00,0.00,29.5,28.0,00.0,38.2,31.4,12.8,0002.3,0034.70,0024.62,0023.52
2022-09-07 04:31:00,,0831.7,4.99,0.00,29.5,28.2,00.0,38.2,31.4,12.8,0002.6,0034.01,0024.57,0023.46
2022-09-07 04:32:00,,0831.7,5.01,0.00,29.6,28.4,00.0,38.3,31.5,12.8,0002.9,0033.75,0024.47,0023.40
2022-09-07 04:33:00,,0831.7,4.98,0.00,29.6,28.5,00.0,38.3,31.5,12.8,0002.9,0033.24,0024.43,0023.37
2022-09-07 04:34:00,,0831.7,5.01,0.00,29.6,28.6,00.0,38.3,31.6,12.8,0003.1,0032.74,0024.43,0023.35
2022-09-07 04:35:00,,0831.7,4.99,0.00,29.7,28.7,00.0,38.3,31.6,12.8,0003.2,0032.24,0024.36,0023.27
2022-09-07 04:36:00,,0831.7,5.01,0.00,29.7,28.8,00.0,38.4,31.7,12.7,0003.8,0032.46,0024.29,0023.21
2022-09-07 04:37:00,,0831.7,4.99,0.00,29.8,28.8,00.0,38.4,31.7,12.7,0003.7,0032.14,0024.28,0023.17
2022-09-07 04:38:00,,0831.7,4.99,0.00,29.8,27.8,00.0,38.4,31.7,12.7,0002.9,0032.71,0024.30,0023.14
2022-09-07 04:39:00,,0831.7,5.00,0.00,29.8,27.1,00.0,38.4,31.6,12.7,0003.2,0031.90,0024.27,0023.12
2022-09-07 04:40:00,,0831.7,5.00,0.00,29.7,27.2,00.0,38.3,31.5,12.7,0003.7,0031.82,0024.25,0023.12
2022-09-07 04:41:00,,0831.7,5.00,0.00,29.7,27.4,00.0,38.3,31.4,12.8,0003.8,0031.57,0024.24,0023.13
2022-09-07 04:42:00,,0831.7,5.00,0.00,29.7,27.7,00.0,38.3,31.4,12.8,0003.5,0032.25,0024.19,0023.11
2022-09-07 04:43:00,,0831.7,5.00,0.00,29.7,27.9,00.0,38.3,31.5,12.7,0003.5,0032.76,0024.24,0023.11
2022-09-07 04:44:00,,0831.7,5.01,0.00,29.7,28.2,00.0,38.3,31.5,12.7,0003.3,0032.89,0024.26,0023.11
2022-09-07 04:45:00,,0831.7,4.98,0.00,29.7,28.4,00.0,38.4,31.6,12.7,0003.0,0033.01,0024.21,0023.09
2022-09-07 04:46:00,,0831.7,5.01,0.00,29.7,28.5,00.0,38.4,31.6,12.7,0003.0,0033.03,0024.17,0023.08
2022-09-07 04:47:00,,0831.7,4.99,0.00,29.8,28.7,00.0,38.4,31.7,12.7,0002.5,0032.14,0024.11,0023.05
2022-09-07 04:48:00,,0831.7,5.01,0.00,29.8,28.8,00.0,38.4,31.7,12.7,0002.8,0031.76,0024.08,0023.04
2022-09-07 04:49:00,,0831.7,4.99,0.00,29.8,28.9,00.0,38.5,31.8,12.7,0002.6,0031.63,0023.99,0022.98
2022-09-07 04:50:00,,0831.7,5.00,0.00,29.9,28.2,00.0,38.5,31.7,12.7,0002.1,0031.38,0023.95,0022.91
2022-09-07 04:51:00,,0831.8,5.00,0.00,29.8,26.7,00.0,38.4,31.4,12.7,0001.8,0030.94,0023.86,0022.85
2022-09-07 04:52:00,,0831.8,4.98,0.00,29.7,26.3,00.0,38.4,31.4,12.8,0001.8,0030.77,0023.79,0022.77
2022-09-07 04:53:00,,0831.7,5.00,0.00,29.7,26.5,00.0,38.3,31.3,12.8,0002.1,0030.32,0023.82,0022.74
2022-09-07 04:54:00,,0831.7,5.00,0.00,29.6,26.8,00.0,38.3,31.2,12.9,0001.7,0030.11,0023.75,0022.67
2022-09-07 04:55:00,,0831.7,5.01,0.00,29.6,27.2,00.0,38.3,31.3,13.0,0002.2,0029.85,0023.64,0022.56
2022-09-07 04:56:00,,0831.7,5.00,0.00,29.6,27.6,00.0,38.3,31.3,13.0,0002.5,0029.74,0023.60,0022.51
2022-09-07 04:57:00,,0831.7,5.01,0.00,29.6,27.8,00.0,38.3,31.4,13.1,0002.1,0029.61,0023.52,0022.44
2022-09-07 04:58:00,,0831.7,4.99,0.00,29.6,28.1,00.0,38.3,31.4,13.1,0001.8,0030.10,0023.47,0022.38
2022-09-07 04:59:00,,0831.7,5.00,0.00,29.6,28.2,00.0,38.3,31.4,13.1,0001.4,0030.46,0023.43,0022.33
